User: anonymous   Login
Location: Monroe
(41.9160°N, 83.3980°W)
Time: 17:12:20
(UTC-05:00)
Language:

deb Explorer IX - Orbit

View from above orbital plane
View from above orbital plane
View from above satellite
View from above satellite

Ground track
Ground track

The orbit data is extracted from the following two-line orbital elements,

1 00085U 61004C   14360.58134130  .00018521  00000-0  46834-2 0   976
2 00085 038.7660 084.8388 0432278 211.3360 146.0938 14.06645942647308
Epoch (UTC): 26 December 2014 13:57:07
Eccentricity: 0.0432278
inclination: 38.7660°
perigee height: 557 km
apogee height: 1184 km
right ascension of ascending node: 84.8388°
argument of perigee: 211.3360°
revolutions per day: 14.06645942
mean anomaly at epoch: 146.0938°
orbit number at epoch: 64730

The dashed part of the orbit path shows where the satellite is in the earth's shadow,  

DLR